Powrót do katalogu

CZ-6A DEB

AktywnySSO
NORAD 54431·DEBRIS·🇨🇳 China

Wystrzelony Nov 11, 2022 z Taiyuan Satellite Launch Center

Loading…

Następne Przeloty (najbliższe 24 godziny)

TLE

ŚwieżeSource: Space-Track

Epoka: Sep 14, 2026, 11:02 UTC

1 54431U 22151FF  26257.45993154  .00000638  00000-0  40848-3 0  9994
2 54431  98.9807 260.7574 0118774 105.1144 256.3197 14.03479728196155

Śledź CZ-6A DEB w czasie rzeczywistym z AllMySat

Download on the App Store